Moose, Wyoming, United States (83012)
Lat: 43.66N, Lon: 110.72W
Wx Zone: WYZ013
Local Info
Past Weather Observations for Saturday, November 22, 2014

NOTE: This archive is for the closest National Weather Service station to Moose. Information may differ from the station used for current weather conditions.

Click here for Long-term Archive

Time Weather Temperature Dewpoint Humidity Pressure Winds Precip Visibility
23:55
Overcast
19°F / -7°C 18°F / -8°C 93% 29.8 in
(1009 mb)
Calm - 10SM
23:35
Overcast
23°F / -5°C 18°F / -8°C 80% 29.8 in
(1009 mb)
Calm - 10SM
23:15
Overcast
21°F / -6°C 16°F / -9°C 80% 29.8 in
(1009 mb)
Calm - 10SM
22:55
Overcast
21°F / -6°C 16°F / -9°C 80% 29.77 in
(1008 mb)
SSE 8.1 mph
(SSE 13 kph)
- 10SM
22:35
Mostly Cloudy
21°F / -6°C 14°F / -10°C 74% 29.77 in
(1008 mb)
S 5.8 mph
(S 9 kph)
- 10SM
22:15
Mostly Cloudy
23°F / -5°C 16°F / -9°C 74% 29.77 in
(1008 mb)
SSE 8.1 mph
(SSE 13 kph)
- 10SM
21:55
Partly Cloudy
25°F / -4°C 14°F / -10°C 63% 29.74 in
(1007 mb)
SE 12.7 mph
(SE 20 kph)
- 10SM
21:35
Clear
25°F / -4°C 16°F / -9°C 69% 29.74 in
(1007 mb)
SW 4.6 mph
(SW 7 kph)
- 10SM
21:15
Clear
27°F / -3°C 16°F / -9°C 64% 29.74 in
(1007 mb)
SSE 9.2 mph
(SSE 15 kph)
- 10SM
20:55
Clear
25°F / -4°C 16°F / -9°C 69% 29.74 in
(1007 mb)
SSE 10.4 mph
(SSE 17 kph)
- 10SM
19:52
Clear
30°F / -1°C 16°F / -9°C 55% 29.68 in
(1005 mb)
W 18.4 mph
(W 30 kph)
- 8SM
18:52
Clear
30°F / -1°C 16°F / -9°C 55% 29.68 in
(1005 mb)
SSW 18.4 mph
(SSW 30 kph)
- 10SM
17:54
Partly Cloudy
27°F / -3°C 25°F / -4°C 93% 29.68 in
(1005 mb)
ENE 6.9 mph
(ENE 11 kph)
- 10SM
17:36
Mostly Cloudy
30°F / -1°C 25°F / -4°C 80% 29.65 in
(1004 mb)
SSW 11.5 mph
(SSW 19 kph)
- 8SM
17:03
Overcast
Snow
30°F / -1°C 30°F / -1°C 100% 29.65 in
(1004 mb)
SSW 11.5 mph
(SSW 19 kph)
- 1/2SM
16:52
Partly Cloudy
Fog And Mist
34°F / 1°C 30°F / -1°C 87% 29.62 in
(1003 mb)
S 11.5 mph
(S 19 kph)
- 1 1/2SM
15:52
Overcast
34°F / 1°C 30°F / -1°C 87% 29.59 in
(1002 mb)
S 16.1 mph
(S 26 kph)
- 8SM
14:52
Mostly Cloudy
34°F / 1°C 32°F / 0°C 93% 29.59 in
(1002 mb)
S 11.5 mph
(S 19 kph)
- 8SM
14:25
Overcast
Fog And Mist
34°F / 1°C 34°F / 1°C 100% 29.59 in
(1002 mb)
S 18.4 mph
(S 30 kph)
- 3SM
13:52
Overcast
Fog And Mist
34°F / 1°C 34°F / 1°C 100% 29.59 in
(1002 mb)
S 23 mph
(S 37 kph)
- 2SM
13:07
Overcast
Fog And Mist
34°F / 1°C 34°F / 1°C 100% 29.59 in
(1002 mb)
S 18.4 mph
(S 30 kph)
- 4SM
12:55
Overcast
Light Snow
34°F / 1°C 34°F / 1°C 100% 29.59 in
(1002 mb)
S 19.6 mph
(S 32 kph)
- 1SM
12:28
Overcast
Light Snow
34°F / 1°C 34°F / 1°C 100% 29.59 in
(1002 mb)
S 23 mph
(S 37 kph)
- 1 1/4SM
12:09
Overcast
Snow
34°F / 1°C 34°F / 1°C 100% 29.59 in
(1002 mb)
S 27.6 mph
(S 44 kph)
- 3/4SM
11:55
Overcast
Fog And Mist
34°F / 1°C 34°F / 1°C 100% 29.62 in
(1003 mb)
S 19.6 mph
(S 32 kph)
- 2SM
11:37
Overcast
Fog And Mist
34°F / 1°C 34°F / 1°C 100% 29.62 in
(1003 mb)
S 20.7 mph
(S 33 kph)
- 1SM
10:51
Overcast
Heavy Snow
32°F / 0°C 32°F / 0°C 100% 29.65 in
(1004 mb)
S 23 mph
(S 37 kph)
- 1/4SM
09:51
Overcast
34°F / 1°C 32°F / 0°C 93% 29.68 in
(1005 mb)
SW 11.5 mph
(SW 19 kph)
- 01SM
08:51
Overcast
34°F / 1°C 32°F / 0°C 93% 29.71 in
(1006 mb)
SW 12.7 mph
(SW 20 kph)
- 5SM
08:00
Overcast
32°F / 0°C 32°F / 0°C 100% 29.71 in
(1006 mb)
SW 11.5 mph
(SW 19 kph)
- 10SM
06:55
Overcast
30°F / -1°C 30°F / -1°C 100% 29.77 in
(1008 mb)
S 10.4 mph
(S 17 kph)
- 1/2SM
06:35
Overcast
30°F / -1°C 30°F / -1°C 100% 29.77 in
(1008 mb)
SW 13.8 mph
(SW 22 kph)
- 1SM
06:15
Overcast
30°F / -1°C 30°F / -1°C 100% 29.74 in
(1007 mb)
SW 10.4 mph
(SW 17 kph)
- 2SM
05:55
Overcast
30°F / -1°C 30°F / -1°C 100% 29.77 in
(1008 mb)
SSE 13.8 mph
(SSE 22 kph)
- 2SM
05:35
Overcast
32°F / 0°C 30°F / -1°C 93% 29.8 in
(1009 mb)
S 18.4 mph
(S 30 kph)
- 2 1/2SM
05:15
Overcast
34°F / 1°C 28°F / -2°C 81% 29.8 in
(1009 mb)
SW 19.6 mph
(SW 32 kph)
- 2SM
04:55
Overcast
34°F / 1°C 27°F / -3°C 75% 29.8 in
(1009 mb)
SW 12.7 mph
(SW 20 kph)
- 10SM
04:35
Overcast
30°F / -1°C 28°F / -2°C 93% 29.77 in
(1008 mb)
SW 9.2 mph
(SW 15 kph)
- 10SM
04:15
Overcast
30°F / -1°C 28°F / -2°C 93% 29.8 in
(1009 mb)
SW 8.1 mph
(SW 13 kph)
- 10SM
03:55
Overcast
30°F / -1°C 28°F / -2°C 93% 29.83 in
(1010 mb)
SW 11.5 mph
(SW 19 kph)
- 10SM
03:35
Overcast
30°F / -1°C 28°F / -2°C 93% 29.83 in
(1010 mb)
SW 13.8 mph
(SW 22 kph)
- 10SM
03:15
Overcast
30°F / -1°C 28°F / -2°C 93% 29.83 in
(1010 mb)
SSW 5.8 mph
(SSW 9 kph)
- 10SM
02:55
Overcast
30°F / -1°C 28°F / -2°C 93% 29.83 in
(1010 mb)
SSE 3.5 mph
(SSE 6 kph)
- 10SM
02:35
Overcast
30°F / -1°C 28°F / -2°C 93% 29.86 in
(1011 mb)
SW 5.8 mph
(SW 9 kph)
- 10SM
02:15
Overcast
30°F / -1°C 28°F / -2°C 93% 29.89 in
(1012 mb)
SW 10.4 mph
(SW 17 kph)
- 10SM
01:55
Overcast
30°F / -1°C 28°F / -2°C 93% 29.89 in
(1012 mb)
SW 8.1 mph
(SW 13 kph)
- 10SM
01:35
Overcast
30°F / -1°C 28°F / -2°C 93% 29.89 in
(1012 mb)
S 12.7 mph
(S 20 kph)
- 8SM
01:15
Overcast
32°F / 0°C 28°F / -2°C 87% 29.89 in
(1012 mb)
S 13.8 mph
(S 22 kph)
- 10SM
00:55
Overcast
32°F / 0°C 28°F / -2°C 87% 29.92 in
(1013 mb)
S 19.6 mph
(S 32 kph)
- 3SM
00:35
Overcast
30°F / -1°C 25°F / -4°C 80% 29.92 in
(1013 mb)
S 13.8 mph
(S 22 kph)
- 10SM
00:15
Mostly Cloudy
28°F / -2°C 25°F / -4°C 86% 29.92 in
(1013 mb)
SW 8.1 mph
(SW 13 kph)
- 10SM
Time Weather Temperature Dewpoint Humidity Pressure Winds Precip Visibility


Weather for websites

WeatherForYou.com, LLC is not responsible for any damages or problems caused by this service. Current weather conditions are obtained from the closest station including government and personal stations which may have varying degrees of accuracy. Weather forecasts are derived from the NOAA NDFD. Like all things, this site belongs to Jesus Christ... He just trusts me to maintain it. If you have any questions or comments email webmaster@weatherforyou.com

Copyright © 2014, WeatherForYou.com LLC. All rights reserved.